JH0FOG-13 Weather Reports


time (UTC)temp
F
wind
direction
speed
knots
gust
knots
rain 1hr
in
rain 24hr
in
rain mn
in
humidity
%
barometer
mb
20260504204001 47 0 0.0 0.0 0.00 0.69 0.00 92 1019.1
20260504202001 44 0 0.0 0.0 0.00 0.78 0.00 93 1018.9
20260504200001 44 0 0.0 0.0 0.00 0.89 0.00 92 1018.8
20260504194001 44 0 0.0 0.0 0.00 1.03 0.00 92 1018.3
20260504192001 45 209 0.0 0.9 0.00 1.21 0.00 92 1017.7
20260504190001 46 0 0.0 0.0 0.00 1.30 0.00 91 1017.6
20260504184001 46 0 0.0 0.0 0.00 1.31 0.00 91 1017.1
20260504182001 47 0 0.0 0.0 0.00 1.31 0.00 90 1017.0
20260504180001 48 0 0.0 0.0 0.00 1.31 0.00 89 1016.7
20260504174001 49 0 0.0 0.0 0.00 1.32 0.00 88 1016.7
20260504172001 49 0 0.0 0.0 0.00 1.33 0.00 88 1016.5
20260504082002 57 332 2.6 9.6 0.00 1.59 1.23 84 1006.6
20260504050001 59 347 1.7 7.8 0.00 1.59 1.23 84 1002.8
20260504044001 59 9 1.7 7.8 0.00 1.59 1.23 85 1002.4
20260504042001 58 4 0.9 7.0 0.01 1.59 1.23 87 1002.4
20260504040001 58 112 0.9 2.6 0.01 1.59 1.23 87 1002.1
20260504034001 58 134 0.9 4.3 0.03 1.59 1.23 88 1002.1
20260504032002 58 131 0.9 2.6 0.02 1.58 1.22 89 1002.0
20260504030002 58 125 0.9 4.3 0.03 1.58 1.22 89 1001.8
20260504024002 58 330 0.9 3.5 0.01 1.56 1.20 91 1002.0
20260504022002 58 115 0.0 2.6 0.03 1.56 1.20 92 1002.2
20260504020002 57 336 0.0 1.7 0.07 1.55 1.19 92 1002.2
20260504014002 58 148 0.0 3.5 0.18 1.55 1.19 92 1001.8
20260504012002 58 21 0.0 1.7 0.18 1.53 1.17 92 1002.2
20260504010002 58 89 0.0 4.3 0.13 1.48 1.12 91 1002.2
20260504004002 59 212 0.0 1.7 0.02 1.37 1.01 88 1002.2
20260504002002 59 129 0.9 3.5 0.00 1.35 0.99 88 1001.8
20260504000002 59 1 0.0 3.5 0.01 1.35 0.99 88 1001.7
20260503234002 59 107 0.0 1.7 0.03 1.35 0.99 89 1001.7
20260503232002 59 165 0.9 4.3 0.03 1.35 0.99 89 1001.7
20260503230002 60 119 0.9 3.5 0.02 1.34 0.98 88 1001.6
20260503224002 60 18 1.7 5.2 0.00 1.32 0.96 87 1001.6
20260503222002 59 67 0.9 11.3 0.01 1.32 0.96 89 1001.4
20260503220002 58 96 0.9 4.3 0.08 1.32 0.96 92 1001.1
20260503214002 58 126 0.9 5.2 0.20 1.32 0.96 93 1000.8
20260503212002 58 75 1.7 9.6 0.28 1.31 0.95 93 1000.7
20260503210002 59 130 1.7 4.3 0.32 1.24 0.88 93 1000.5